This demonstration page uses our WeatherBlox Daily Observations layout. Learn more.

Hourly Observations for April 20, 2018

Temp ( °F °C ) Dew Point ( °F °C ) Humidity (%) Winds ( mph kmh ) Pressure ( in mb ) Visibility ( mi km ) Precip ( " mm )
12:15 am 00:15 Clear 39 3.8 29 -1.5 69 69 SE 12 19 30.36 1028 10 16.0934 0 0
12:35 am 00:35 Clear 38 3.5 29 -1.8 69 69 SE 10 17 30.36 1028 10 16.0934 0 0
12:55 am 00:55 Clear 38 3.5 29 -1.7 69 69 SE 9 15 30.36 1028 10 16.0934 0 0
1:15 am 01:15 Clear 39 3.7 29 -1.8 68 68 SE 10 17 30.36 1028 10 16.0934 0 0
1:35 am 01:35 Clear 38 3.4 29 -1.6 70 70 ESE 10 17 30.36 1028 10 16.0934 0 0
1:55 am 01:55 Clear 38 3.1 29 -1.8 71 71 SE 10 17 30.36 1028 10 16.0934 0 0
2:15 am 02:15 Clear 38 3.3 29 -1.9 69 69 SE 10 17 30.36 1028 10 16.0934 0 0
2:35 am 02:35 Clear 38 3.1 28 -2 70 70 SE 12 19 30.36 1028 10 16.0934 0 0
2:55 am 02:55 Clear 38 3.6 28 -2 67 67 SE 13 20 30.36 1028 10 16.0934 0 0
3:15 am 03:15 Clear 39 3.8 28 -2 66 66 SE 13 20 30.36 1028 10 16.0934 0 0
3:35 am 03:35 Clear 38 3.3 28 -2 69 69 SE 12 19 30.36 1028 10 16.0934 0 0
3:55 am 03:55 Clear 38 3.5 28 -2 68 68 SE 12 19 30.33 1027 10 16.0934 0 0
4:15 am 04:15 Clear 38 3.2 29 -1.8 70 70 SE 10 17 30.36 1028 10 16.0934 0 0
4:35 am 04:35 Clear 38 3.3 29 -1.8 70 70 SE 9 15 30.36 1028 10 16.0934 0 0
4:55 am 04:55 Clear 37 3 29 -1.7 72 72 SE 9 15 30.33 1027 10 16.0934 0 0
5:15 am 05:15 Clear 37 3 29 -1.5 73 73 SE 9 15 30.33 1027 10 16.0934 0 0
5:35 am 05:35 Clear 37 3 29 -1.5 73 73 SE 9 15 30.33 1027 10 16.0934 0 0
5:55 am 05:55 Partly Cloudy 38 3.2 30 -1.1 74 74 SE 9 15 30.33 1027 10 16.0934 0 0
6:15 am 06:15 Partly Cloudy 39 3.7 30 -0.9 72 72 SE 8 13 30.33 1027 10 16.0934 0 0
6:35 am 06:35 Partly Cloudy 39 4.1 31 -0.6 72 72 SE 9 15 30.33 1027 10 16.0934 0 0
6:55 am 06:55 Partly Cloudy 40 4.3 31 -0.5 71 71 SE 9 15 30.33 1027 10 16.0934 0 0
7:15 am 07:15 Sunny 40 4.5 31 -0.3 71 71 SE 10 17 30.33 1027 10 16.0934 0 0
7:35 am 07:35 Partly Cloudy 41 5 32 0 70 70 SE 9 15 30.3 1026 10 16.0934 0 0
7:55 am 07:55 Mostly Cloudy 42 5.5 32 0 68 68 SE 13 20 30.33 1027 10 16.0934 0 0
8:15 am 08:15 Cloudy 42 5.5 32 -0.1 68 68 SE 16 26 30.3 1026 10 16.0934 0 0
8:35 am 08:35 Cloudy 42 5.6 32 0 68 68 SE 10 17 30.3 1026 10 16.0934 0 0
8:55 am 08:55 Cloudy 44 6.7 32 0.1 63 63 SSE 17 28 30.3 1026 10 16.0934 0 0
9:15 am 09:15 Cloudy 45 7.2 32 0 61 61 SSE 16 26 30.3 1026 10 16.0934 0 0
9:35 am 09:35 Cloudy 46 7.7 33 0.3 60 60 SSE 17 28 30.3 1026 10 16.0934 0 0
9:55 am 09:55 Cloudy 45 7.4 32 0.2 61 61 SSE 17 28 30.33 1027 10 16.0934 0 0
10:15 am 10:15 Cloudy 46 8 33 0.4 59 59 SE 21 33 30.3 1026 10 16.0934 0 0
10:35 am 10:35 Cloudy 46 8 32 0.2 58 58 SSE 17 28 30.3 1026 10 16.0934 0 0
10:55 am 10:55 Mostly Cloudy 47 8.5 33 0.6 58 58 SSE 17 28 30.27 1025 10 16.0934 0 0
11:15 am 11:15 Cloudy 47 8.4 33 0.5 58 58 SSE 18 30 30.27 1025 10 16.0934 0 0
11:35 am 11:35 Partly Cloudy 49 9.3 33 0.6 55 55 SE 16 26 30.27 1025 10 16.0934 0 0
11:55 am 11:55 Partly Cloudy 50 10.2 33 0.6 52 52 SSE 21 33 30.27 1025 10 16.0934 0 0
12:15 pm 12:15 Mostly Cloudy 49 9.6 33 0.5 53 53 SSE 17 28 30.27 1025 10 16.0934 0 0
12:35 pm 12:35 Cloudy 50 10 33 0.6 52 52 SSE 18 30 30.24 1024 10 16.0934 0 0
12:55 pm 12:55 Cloudy 50 10.1 33 0.6 52 52 SSE 20 31 30.24 1024 10 16.0934 0 0
1:15 pm 13:15 Cloudy 51 10.7 33 0.7 50 50 SE 18 30 30.21 1023 10 16.0934 0 0
1:35 pm 13:35 Cloudy 50 10 33 0.5 52 52 SSE 18 30 30.21 1023 10 16.0934 0 0
1:55 pm 13:55 Cloudy 50 10.1 33 0.6 52 52 SE 20 31 30.21 1023 10 16.0934 0 0
2:15 pm 14:15 Cloudy 50 10.1 33 0.4 51 51 SE 18 30 30.21 1023 10 16.0934 0 0
2:35 pm 14:35 Cloudy 50 10.2 33 0.3 51 51 SE 10 17 30.24 1024 10 16.0934 0 0
2:55 pm 14:55 Mostly Cloudy 51 10.6 33 0.5 50 50 SE 9 15 30.24 1024 10 16.0934 0 0
3:15 pm 15:15 Mostly Cloudy 51 10.8 33 0.6 50 50 SSE 13 20 30.27 1025 10 16.0934 0 0
3:35 pm 15:35 Partly Cloudy 53 11.5 33 0.7 48 48 SE 12 19 30.21 1023 10 16.0934 0 0
3:55 pm 15:55 Sunny 52 11.2 33 0.6 48 48 S 12 19 30.24 1024 10 16.0934 0 0
4:15 pm 16:15 Partly Cloudy 51 10.8 33 0.5 49 49 SE 7 11 30.21 1023 10 16.0934 0 0
4:35 pm 16:35 Mostly Cloudy 51 10.6 33 0.7 51 51 SE 8 13 30.21 1023 10 16.0934 0 0
4:55 pm 16:55 Cloudy 50 10.2 34 1.2 54 54 ESE 6 9 30.21 1023 10 16.0934 0 0
5:15 pm 17:15 Cloudy 50 10.1 34 1.3 55 55 Calm 30.21 1023 10 16.0934 0 0
5:35 pm 17:35 Cloudy with Light Rain 49 9.4 37 3 65 65 ESE 5 7 30.24 1024 10 16.0934 0 0
5:55 pm 17:55 Cloudy 48 8.8 38 3.2 68 68 ENE 6 9 30.21 1023 10 16.0934 0 0
6:15 pm 18:15 Cloudy 48 8.7 38 3.4 70 70 NE 5 7 30.24 1024 10 16.0934 0 0
6:35 pm 18:35 Cloudy 48 9.1 38 3.3 67 67 NE 7 11 30.24 1024 10 16.0934 0 0
6:55 pm 18:55 Cloudy 48 9 37 2.9 66 66 NE 10 17 30.21 1023 10 16.0934 0 0
7:15 pm 19:15 Cloudy 48 8.8 37 2.6 65 65 ENE 12 19 30.21 1023 10 16.0934 0 0
7:35 pm 19:35 Cloudy with Light Rain 48 8.8 37 2.5 65 65 E 7 11 30.24 1024 10 16.0934 0 0
7:55 pm 19:55 Cloudy with Light Rain 46 8 39 4 76 76 E 12 19 30.24 1024 10 16.0934 0.01 0.254
8:15 pm 20:15 Cloudy 46 7.9 40 4.3 78 78 E 10 17 30.21 1023 10 16.0934 0 0
8:35 pm 20:35 Cloudy 46 8 39 3.9 76 76 E 13 20 30.21 1023 10 16.0934 0 0
8:55 pm 20:55 Cloudy 46 8 38 3.6 74 74 E 14 22 30.18 1022 10 16.0934 0 0
9:15 pm 21:15 Cloudy 46 8 39 3.9 76 76 E 13 20 30.21 1023 10 16.0934 0 0
9:35 pm 21:35 Cloudy 46 7.9 39 3.7 75 75 E 14 22 30.21 1023 10 16.0934 0 0
9:55 pm 21:55 Cloudy with Drizzle 46 7.6 39 4 78 78 E 13 20 30.24 1024 10 16.0934 0 0
10:15 pm 22:15 Cloudy with Light Rain 45 7.1 40 4.5 84 84 ESE 15 24 30.27 1025 10 16.0934 0.01 0.254
10:35 pm 22:35 Cloudy with Light Rain 46 7.5 40 4.3 80 80 ESE 20 31 30.27 1025 7 11.26538 0.03 0.762
10:55 pm 22:55 Cloudy with Light Rain 44 6.5 41 5 90 90 ESE 21 33 30.3 1026 4 6.43736 0.08 2.032
11:15 pm 23:15 Cloudy with Light Rain 42 5.8 40 4.7 93 93 ESE 21 33 30.27 1025 7 11.26538 0.02 0.508
11:35 pm 23:35 Cloudy with Light Rain 42 5.5 40 4.5 93 93 E 15 24 30.27 1025 7 11.26538 0.03 0.762
11:55 pm 23:55 Cloudy with Light Drizzle 42 5.3 40 4.5 95 95 E 15 24 30.27 1025 10 16.0934 0.03 0.762

Powered by AerisWeather